FENGYUN 1C DEB, 31498

Orbit data source: Space-Track

FENGYUN 1C DEB, 31498 is space debris in SSO originally from a launch on Mon, 10 May 1999 UTC launched from the Taiyaun Space Center, China (TSC). Fengyun 1C debris stems from the Chinese weather satellite Fengyun-1C, which was intentionally destroyed by a Chinese anti-satellite missile in 2007. This event dramatically increased the amount of space debris, with thousands of trackable fragments posing hazards to satellites and human spaceflight. The Fengyun 1C debris cloud has become a focal point in discussions about space sustainability and the need for international regulations to prevent the creation of new debris.

Loading next visibility...
Identifier
31498, 1999-025BWM
Orbit
SSO
Country
Flag of CNCN / PRC
Related business
Manufacturer
Unknown
Mission
Spacecraft
Bus & Motor
Unknown
Mass
Unknown
Launch date (UTC)
1999-05-10 (27 years ago)
Launch vehicle
Unknown
Launch site
Taiyaun Space Center, China (TSC)
Object type
Payload
Rocket body
Debris
Shape & HBR
Unknown shape, 0.1 m
Radar Cross Section
Medium (>0.1 m² and <1 m²)

Expand to show TLE details & history
Last TLE update: 1 day ago

TLE from 1 day ago
0 FENGYUN 1C DEB
1 31498U 99025BWM 26254.32252951  .00001230  00000-0  10554-2 0  9991
2 31498  98.4986 202.1808 0217514 127.5825 234.5301 13.78109472964876
Epoch: 2026-09-11T07:44Z
TLE epoch observation values (Epoch: 2026-09-11T07:44:26.549Z)
Latitude
-0.00003°
Longitude
95.72264°
Altitude
1,068.502 km
Speed
7.27 km/s
True Right ascension
13h 28m 43s
True Declination
0° 00' 00"
Sunlit
Object was in daylight at epoch
Visualization orbit readout
Latitude
Unknown
Longitude
Unknown
Altitude
Unknown
Speed
Unknown
Apparent Right ascension
Unknown
Apparent Declination
Unknown
Sunlit
N/A
Visualization observer readout
Local Sidereal Time
04:44:06
Azimuth
Unknown
Elevation
Unknown
Doppler factor
Unknown
Orbital elements
Apogee altitude
1,127.587 km
Perigee altitude
808.018 km
Semi-major axis
7,345.94 km
Eccentricity
0.02175
Inclination
98.4986°
RAAN
202.1808°
Arg. of periapsis
127.5825°
True anomaly
232.53209°
Mean anomaly
234.5301°
Eccentric anomaly
233.52792°
Mean motion
3.44724 °/min
Orbital period
104.43 mins
BSTAR
0.0010554
Loading maneuver chart data...
Computing Atmospheric mass density...

Documentation

Showing up to 5 results
|